Flag for United Arab Emirates

Past Weather in Dubai, Dubai, United Arab Emirates — August 2019

Now
88 °F

Clear.


Feels Like: 86 °F
Forecast: 92 / 77 °F
Wind: 8 mph from Northeast

Location: Dubai International Airport
Current Time: Oct 20, 2020 at 7:38:22 pm
Latest Report: Oct 20, 2020 at 7:00 pm
Visibility: 10 mi
Pressure29.80 "Hg
Humidity: 33%
Dew Point: 55 °F
Location of DubaiLocation

August 2019 Weather in Dubai — Graph

°F

High & Low Weather Summary for August 2019

 TemperatureHumidityPressure
High115 °F (Aug 9, 3:00 pm)89% (Aug 5, 7:00 am)29.68 "Hg (Aug 5, 7:00 am)
Low88 °F (Aug 6, 6:00 am)9% (Aug 23, 5:13 pm)29.24 "Hg (Aug 8, 4:00 pm)
Average99 °F46%29.47 "Hg
* Reported Aug 1 12:00 am — Aug 31 11:00 pm, Dubai. Weather by CustomWeather, © 2020

Note: Actual official high and low records may vary slightly from our data, if they occured in-between our weather recording intervals... More about our weather records

Dubai Weather History for August 1, 2019

Scroll right to see more
 ConditionsComfort  
Time TempWeatherWind HumidityBarometerVisibility
12:00 am
Thu, Aug 1
102 °FClear.5 mph35%29.45 "Hg5 mi
1:00 am100 °FPassing clouds.5 mph40%29.45 "HgN/A
2:00 am99 °FPassing clouds.6 mph39%29.45 "HgN/A
3:00 am99 °FPassing clouds.6 mph39%29.42 "HgN/A
4:00 am97 °FPassing clouds.7 mph42%29.42 "HgN/A
5:00 am97 °FClear.3 mph42%29.45 "Hg10 mi
6:00 am95 °FPassing clouds.5 mph47%29.45 "HgN/A
7:00 am97 °FPassing clouds.6 mph39%29.45 "HgN/A
8:00 am100 °FPassing clouds.10 mph35%29.47 "HgN/A
9:00 am100 °FPassing clouds.9 mph35%29.47 "HgN/A
10:00 am106 °FClear.12 mph30%29.47 "Hg4 mi
11:00 am104 °FClear.12 mph35%29.47 "Hg4 mi
12:00 pm104 °FSunny.13 mph38%29.45 "Hg10 mi
1:00 pm104 °FSunny.14 mph38%29.45 "Hg10 mi
2:00 pm102 °FClear.14 mph51%29.42 "Hg5 mi
3:00 pm100 °FClear.13 mph50%29.39 "Hg4 mi
4:00 pm102 °FDuststorm.14 mph48%29.39 "Hg3 mi
5:00 pm100 °FDuststorm.14 mph47%29.39 "Hg3 mi
6:00 pm97 °FDuststorm.13 mph60%29.39 "Hg2 mi
7:00 pm97 °FDuststorm.10 mph60%29.39 "Hg2 mi
8:00 pm97 °FClear.9 mph56%29.42 "Hg4 mi
9:00 pm95 °FClear.10 mph67%29.42 "Hg4 mi
10:00 pm95 °FClear.6 mph67%29.42 "Hg4 mi
11:00 pm95 °FClear.5 mph71%29.42 "Hg5 mi
Weather by CustomWeather, © 2020

See weather overview